Details From KRIC - Richmond Intl
To KCXE - CHASE CITY MUNI
Flight Number -
Tags decoded
Created
Modified
Stats Distance 71 nm / 132 km
Max Altitude 0 ft / 0 m
Waypoints 2
Social Downloads 0
Likes 0
Share VATSIM

Download

Looking for another format? Having issues loading an existing format? Contact us
Advertisement - Login to hide

Notes

Requested: KRIC KCXE

Route

KRIC KCXE

ID Type Via Altitude Latitude Longitude Leg Dist Tot Dist Heading (true) Name
O KRIC APT - 0 ft / 0 m 37.50473˚ -77.32011˚ - 0 nm - Richmond Intl
O KCXE APT - 0 ft / 0 m 36.78832˚ -78.50155˚ 71 nm 71 nm 233° / 232° CHASE CITY MUNI

Altitude Profile

Advertisement - Login to hide

KRIC

Details ICAO KRIC (RIC)
Name Richmond Intl
Region United States
Timezone America/New_York (UTC-4.0)
Stats Elevation 167 ft / 51 m (AMSL)
Location 37.504728° -77.320112°
Runways 3
Magnetic Variation 10.390° W

METAR

KRIC 212254Z 13010KT 10SM OVC300 23/17 A3014 RMK AO2 SLP211 T02280167

Decode

TAF

KRIC 211729Z 2118/2218 09008KT P6SM SCT025 OVC040 FM220600 VRB04KT 5SM BR BKN028 FM221100 VRB03KT 3SM BR OVC008 FM221400 20005KT P6SM BKN035

Decode

Departure Runways

ID Width Length Bearing (true) Bearing (mag) Surface Threshold Offset Overrun Length
02 151 ft / 46 m 6,619 ft / 2,018 m 13.39° 23.78° Asphalt 0 ft / 0 m 125 ft / 38 m
07 98 ft / 30 m 5,312 ft / 1,619 m 57.36° 67.75° Asphalt 0 ft / 0 m 200 ft / 61 m
16 151 ft / 46 m 9,027 ft / 2,751 m 147.64° 158.03° Asphalt 0 ft / 0 m 1,001 ft / 305 m
20 151 ft / 46 m 6,619 ft / 2,018 m 193.39° 203.78° Asphalt 0 ft / 0 m 276 ft / 84 m
25 98 ft / 30 m 5,312 ft / 1,619 m 237.36° 247.75° Asphalt 0 ft / 0 m 0 ft / 0 m
34 151 ft / 46 m 9,027 ft / 2,751 m 327.66° 338.05° Asphalt 0 ft / 0 m 1,001 ft / 305 m

KCXE

Details ICAO KCXE
Name CHASE CITY MUNI
Region United States
Timezone America/New_York (UTC-4.0)
Stats Elevation 503 ft / 153 m (AMSL)
Location 36.788323° -78.501548°
Runways 1
Magnetic Variation 9.543° W

METAR

KCXE 212255Z AUTO 12006KT 10SM BKN013 BKN019 23/23 A3013 RMK AO1 T02340234

Decode

TAF

Not found

Destination Runways

ID Width Length Bearing (true) Bearing (mag) Surface Threshold Offset Overrun Length
18 50 ft / 15 m 3,407 ft / 1,039 m 174.64° 184.18° Asphalt 0 ft / 0 m 0 ft / 0 m
36 50 ft / 15 m 3,407 ft / 1,039 m 354.64° 4.18° Asphalt 0 ft / 0 m 0 ft / 0 m

Popular Alternatives